Change the Weather History Date:

Tuesday, September 18, 2012

  Actual Average Record
Temperature  
Mean Temperature 60 °F 69 °F  
Max Temperature 69 °F 79 °F 97 °F (1925)
Min Temperature 50 °F 60 °F 42 °F (1973)
Degree Days  
Heating Degree Days 5 1  
Month to date heating degree days 8 7  
Since 1 July heating degree days 8 8  
Cooling Degree Days 0 6  
Month to date cooling degree days 145 153  
Year to date cooling degree days 2143 1552  
Growing Degree Days 10 (Base 50)    
Moisture  
Dew Point 45 °F    
Average Humidity 60    
Maximum Humidity 86    
Minimum Humidity 34    
Precipitation  
Precipitation 0.01 in 0.10 in 1.04 in (2001)
Month to date precipitation 1.79 1.85  
Year to date precipitation 25.16 29.60  
Snow  
Snow 0.00 in 0.00 in 0.00 in (2013)
Month to date snowfall 0.0 0.0  
Since 1 July snowfall 0.0 0.0  
Since 1 September snowfall 0.0 0.0  
Snow Depth 0.00 in    
Sea Level Pressure  
Sea Level Pressure 29.98 in    
Wind  
Wind Speed 8 mph (NW)    
Max Wind Speed 20 mph    
Max Gust Speed 25 mph    
Visibility 10 miles    
Events      
T = Trace of Precipitation, MM = Missing Value Source: NWS Daily Summary

Daily Weather History Graph

Daily Weather History Graph

Search for Another Location

Airport or City:

Trip Planner

Search our weather history database for the weather conditions in past years. The results will help you decide how hot, cold, wet, or windy it might be!

Date:

Astronomy

Sep. 18, 2012 Rise Set
Actual Time 6:46 AM CDT 7:04 PM CDT
Civil Twilight 6:19 AM CDT 7:30 PM CDT
Nautical Twilight 5:48 AM CDT 8:01 PM CDT
Astronomical Twilight 5:16 AM CDT 8:33 PM CDT
Moon 9:43 AM CDT (9/18) 8:30 PM CDT (9/18)
Length of Visible Light 13h 11m
Length of Day
12h 18m
Waxing Crescent, 9% of the Moon is Illuminated
Sep 18
Waxing Crescent
Sep 22
First Quarter
Sep 29
Full
Oct 8
Last Quarter
Oct 15
New

Hourly Weather History & Observations

Time (CDT) Temp. Dew Point Humidity Pressure Visibility Wind Dir Wind Speed Gust Speed Precip Events Conditions
12:04 AM 60.8 °F 55.4 °F 82% 29.88 in 10.0 mi North 12.7 mph - N/A   Overcast
12:51 AM 60.1 °F 55.0 °F 83% 29.86 in 10.0 mi NNW 12.7 mph - N/A   Overcast
1:51 AM 59.0 °F 53.1 °F 81% 29.88 in 10.0 mi NW 15.0 mph - 0.01 in   Overcast
2:07 AM 57.2 °F 48.2 °F 72% 29.90 in 10.0 mi North 11.5 mph - N/A   Mostly Cloudy
2:51 AM 55.9 °F 46.9 °F 72% 29.88 in 10.0 mi NNW 12.7 mph - N/A   Scattered Clouds
3:51 AM 54.0 °F 46.9 °F 77% 29.90 in 10.0 mi NNW 10.4 mph - N/A   Partly Cloudy
4:51 AM 53.1 °F 46.0 °F 77% 29.91 in 10.0 mi NW 8.1 mph - N/A   Clear
5:51 AM 52.0 °F 46.0 °F 80% 29.93 in 10.0 mi NW 5.8 mph - N/A   Partly Cloudy
6:51 AM 50.0 °F 46.0 °F 86% 29.95 in 10.0 mi WNW 5.8 mph - N/A   Scattered Clouds
7:51 AM 53.1 °F 46.9 °F 80% 29.96 in 10.0 mi WNW 5.8 mph - N/A   Scattered Clouds
8:51 AM 55.4 °F 48.2 °F 77% 29.99 in 10.0 mi NNW 8.1 mph - N/A   Partly Cloudy
9:51 AM 59.0 °F 48.0 °F 67% 29.99 in 10.0 mi NNW 8.1 mph - N/A   Partly Cloudy
10:51 AM 63.0 °F 46.0 °F 54% 29.99 in 10.0 mi NW 13.8 mph - N/A   Scattered Clouds
11:51 AM 64.0 °F 43.0 °F 46% 30.01 in 10.0 mi NW 15.0 mph 20.7 mph N/A   Scattered Clouds
12:51 PM 66.0 °F 41.0 °F 40% 30.01 in 10.0 mi NNW 13.8 mph 21.9 mph N/A   Partly Cloudy
1:51 PM 66.9 °F 39.0 °F 36% 30.01 in 10.0 mi NNW 11.5 mph 23.0 mph N/A   Partly Cloudy
2:51 PM 68.0 °F 39.0 °F 35% 30.01 in 10.0 mi NW 13.8 mph 19.6 mph N/A   Partly Cloudy
3:51 PM 68.0 °F 39.0 °F 35% 30.01 in 10.0 mi WNW 9.2 mph - N/A   Partly Cloudy
4:51 PM 66.9 °F 37.9 °F 34% 30.01 in 10.0 mi NNW 12.7 mph - N/A   Partly Cloudy
5:51 PM 66.9 °F 37.9 °F 34% 30.02 in 10.0 mi NW 6.9 mph - N/A   Partly Cloudy
6:51 PM 61.0 °F 39.9 °F 46% 30.04 in 10.0 mi North 6.9 mph - N/A   Clear
7:51 PM 61.0 °F 39.9 °F 46% 30.04 in 10.0 mi NNW 3.5 mph - N/A   Clear
8:51 PM 60.1 °F 41.0 °F 49% 30.06 in 10.0 mi Calm Calm - N/A   Clear
9:51 PM 57.0 °F 44.1 °F 62% 30.07 in 10.0 mi Calm Calm - N/A   Clear
10:51 PM 54.0 °F 45.0 °F 72% 30.08 in 9.0 mi Calm Calm - N/A   Clear
11:51 PM 53.1 °F 45.0 °F 74% 30.09 in 10.0 mi Calm Calm - N/A   Clear